Vorticity
19 25 13 6 4 5 9 6 6 4 -0 8 10 8 11 8 5 6 9 8 5 3 3 4 3 1 -1 0 2 4 6 7 9 10 12 13 14 16 17 12 3 -1 -1 -3 -3 -1 0 3 5 4 4 4 4 3 4 4 4 5 5 5 6 5 4 4 4 3 4 4 5 5 5 5 6 6 5 5 5 5 5 5 5 4 4 4 4 4 3 3 3 4 4 3 3 3 2 1 2
3 12 23 28 23 18 17 13 16 16 8 8 10 11 13 7 5 9 9 8 8 5 2 2 5 8 6 2 -1 0 2 4 7 10 11 11 12 12 16 18 12 7 5 -0 -4 -4 -2 0 4 5 4 3 4 3 1 1 3 4 4 5 5 4 4 4 4 3 3 3 4 4 5 4 5 5 5 5 5 5 5 4 4 4 3 3 3 3 3 3 3 4 4 4 3 2 2 3 3
-5 -11 -3 9 17 17 13 16 17 19 21 14 9 10 10 8 10 7 4 5 6 9 6 1 1 4 8 8 3 0 -0 0 2 5 8 10 12 9 8 13 14 13 13 11 4 -3 -5 -4 -1 2 3 3 3 4 3 2 2 3 4 4 3 3 3 3 3 3 3 2 3 3 4 4 5 4 4 5 5 4 4 4 3 3 4 3 3 3 3 4 4 4 3 3 2 2 2 3 3
10 6 -2 -7 -5 -5 -3 8 9 12 19 13 8 7 6 8 9 6 5 4 2 5 6 3 1 0 2 6 7 5 3 1 0 1 3 6 9 10 8 8 9 9 11 14 14 10 3 -3 -4 -3 -0 3 4 4 5 5 4 3 4 3 3 3 1 2 2 2 2 2 2 3 3 3 4 4 4 4 4 4 4 4 4 4 4 4 4 4 3 4 4 4 4 4 3 3 3 4 4
2 9 8 1 -1 -3 -4 -3 -5 -1 4 3 6 7 6 7 6 5 6 6 5 5 5 3 2 1 1 1 5 7 7 5 2 2 2 2 4 8 11 10 9 7 5 7 11 16 15 9 4 2 -1 -1 2 4 4 6 6 4 3 2 1 2 1 2 2 1 0 -0 1 1 2 3 2 2 3 4 4 4 3 4 4 4 3 3 4 5 4 4 4 4 4 4 4 4 4 4 4
3 7 10 4 4 3 2 3 -1 -1 -2 -1 2 3 5 7 7 7 6 7 8 8 9 10 7 6 5 3 4 5 6 7 5 4 3 3 3 3 6 8 9 11 10 7 6 9 15 16 14 14 11 3 -2 -0 2 3 5 4 3 2 -0 0 0 1 2 1 -1 -1 -0 -0 1 2 2 1 2 2 3 4 4 4 4 3 2 2 2 2 3 3 3 3 3 3 3 3 3 3 3
14 11 12 9 8 7 5 8 8 7 6 5 4 1 3 4 4 7 6 7 7 8 9 11 13 13 13 11 9 6 4 5 4 4 2 2 3 3 3 3 4 9 12 12 10 8 8 10 10 12 18 17 9 1 0 0 2 3 3 1 1 -1 -2 0 2 2 0 -0 -0 -1 1 1 1 1 1 1 1 2 3 3 3 3 3 3 2 1 1 1 1 2 2 2 2 3 2 2 2
21 12 8 8 8 8 6 7 9 9 7 8 7 3 5 6 4 4 4 6 6 6 6 6 8 10 12 14 12 11 8 5 3 3 3 1 1 2 3 3 2 3 6 7 7 7 5 4 4 5 9 17 19 14 8 3 -0 2 5 4 3 3 0 2 3 2 2 2 2 2 2 2 1 1 2 2 1 1 1 1 1 2 2 3 3 2 2 2 3 3 2 2 2 2 2 2 1
18 5 -0 2 3 5 6 7 9 9 6 5 6 4 6 9 7 6 4 4 5 4 5 4 4 5 6 8 9 11 13 12 8 5 5 4 3 2 2 4 4 3 3 3 3 3 3 2 3 4 4 6 12 17 19 16 10 5 6 7 7 7 5 4 6 4 4 4 4 3 4 4 2 2 2 2 2 2 2 1 1 2 2 2 2 3 2 1 2 2 2 2 2 2 2 1 1
20 13 7 5 4 4 5 6 6 7 7 6 5 4 6 8 8 7 6 5 6 5 4 5 4 5 4 4 4 4 6 9 11 9 8 9 8 6 5 5 5 5 4 3 4 3 3 2 2 4 5 3 2 6 12 17 20 16 10 7 6 8 9 8 8 8 9 11 11 10 8 7 6 5 4 4 4 4 3 4 4 4 4 4 3 3 3 2 2 2 2 1 2 2 2 3 4
10 11 11 11 10 8 7 5 5 5 5 7 5 4 7 9 8 6 7 6 7 8 7 8 6 5 6 5 5 3 1 2 5 7 8 9 9 9 8 8 8 7 5 4 4 5 4 4 4 4 5 4 3 3 3 6 11 17 16 11 8 7 8 7 8 9 10 12 13 13 13 12 11 9 7 6 6 7 6 7 7 6 6 6 5 5 5 5 5 4 4 4 5 5 6 7 7
-1 -1 0 1 1 2 3 3 3 3 2 5 3 4 9 10 9 8 8 7 7 9 8 9 9 7 7 6 6 6 5 4 4 4 5 6 7 8 7 6 6 6 7 7 5 5 5 6 6 6 5 4 4 4 4 4 4 8 11 11 10 7 6 6 7 7 6 6 7 8 10 12 12 11 11 11 11 11 10 10 9 8 9 9 9 9 9 9 8 7 7 7 8 8 8 9 8
4 4 3 0 -0 -1 -1 1 1 3 1 1 -2 2 11 10 7 7 8 7 5 7 7 8 8 8 8 6 5 6 7 7 6 6 6 7 7 9 8 6 5 6 8 9 9 7 6 6 7 8 9 7 5 5 5 5 5 6 6 7 9 7 5 5 5 5 4 3 3 3 4 5 6 7 8 9 10 11 11 11 11 11 10 10 10 10 10 9 9 8 8 8 9 8 8 8 9
8 7 5 5 7 6 4 4 2 5 3 -1 -3 2 10 9 5 5 6 5 4 4 4 7 6 6 8 6 4 5 6 7 7 7 6 6 5 7 10 9 6 6 7 9 10 9 8 7 6 7 10 10 8 7 7 6 5 6 7 8 9 8 6 6 5 6 6 5 5 6 6 6 7 7 6 6 5 6 6 6 6 7 7 7 7 7 7 7 7 7 8 7 6 6 6 6 6
9 8 6 7 10 8 8 7 5 7 2 -6 -1 6 7 6 6 4 4 3 3 5 2 4 6 5 5 2 4 6 5 5 5 6 6 5 3 4 9 10 8 6 6 6 7 8 8 8 7 6 7 9 9 8 8 8 6 5 6 6 7 7 7 7 7 6 5 5 5 5 5 7 8 7 6 6 6 5 6 7 8 7 5 4 3 3 3 4 5 5 5 4 3 4 4 5 6
10 9 8 9 13 11 10 9 7 7 -2 -9 -0 8 4 3 7 5 5 3 0 5 4 3 5 5 4 2 4 5 5 5 3 3 3 4 5 6 8 9 8 7 7 7 7 7 7 8 9 8 7 7 8 7 6 7 8 7 6 5 6 6 6 8 10 12 12 10 10 10 10 8 9 13 14 14 14 12 10 9 8 7 6 7 6 5 5 4 5 6 6 6 5 5 6 7 7
7 8 6 4 10 11 10 8 6 6 -2 -6 -1 7 6 1 6 6 5 5 -1 2 4 4 5 3 4 5 5 4 4 4 2 2 3 6 9 10 9 8 8 8 9 8 8 8 7 7 7 8 8 8 8 7 7 6 6 7 7 7 6 6 6 5 5 7 9 10 10 12 13 10 8 12 11 7 7 7 5 4 10 14 12 12 12 10 8 7 7 7 7 8 8 7 7 7 4
5 5 4 3 5 4 5 3 2 4 -0 -1 -1 4 7 1 4 9 5 4 2 2 2 3 4 2 3 5 7 7 6 6 5 5 6 8 9 7 8 8 8 8 8 8 8 8 7 7 7 6 6 7 8 8 8 8 6 5 6 7 7 7 7 5 3 1 -1 0 0 -1 1 2 -0 -2 -4 -4 -3 2 3 4 13 19 15 12 11 11 10 9 10 10 7 5 5 4 3 3 1
6 6 6 8 8 3 2 1 2 5 3 3 1 2 6 0 2 9 6 2 4 4 1 2 4 3 4 6 7 7 7 9 10 8 6 5 4 4 5 6 6 7 7 7 7 7 7 9 9 8 7 6 6 7 7 8 8 6 5 6 6 7 7 8 7 7 5 4 2 0 0 1 0 -1 -0 2 2 3 4 0 -5 -4 4 7 3 5 6 6 9 10 7 4 3 3 3 2 2
3 2 2 5 7 6 5 4 4 5 5 6 4 4 7 5 4 9 8 5 4 3 -1 2 4 3 5 6 6 5 5 7 9 8 6 4 5 6 6 6 6 6 7 7 7 7 7 7 7 8 8 8 7 7 7 8 8 8 7 6 5 5 6 7 7 8 9 8 7 7 6 6 5 5 7 9 7 7 8 5 -4 -14 -10 -2 -2 0 2 3 4 4 4 3 5 6 5 4 4
5 4 3 3 5 6 6 7 6 6 7 8 5 5 7 6 6 8 7 8 5 1 1 4 4 2 4 5 3 3 2 3 6 8 8 8 7 7 7 6 6 5 5 6 7 8 8 8 8 8 8 9 9 9 8 8 9 9 9 8 7 7 6 7 7 7 7 8 8 7 7 7 7 6 4 5 6 6 5 4 7 2 -5 -3 1 3 3 4 3 4 5 6 7 6 5 5 6
5 7 7 7 7 7 6 7 8 8 8 9 6 6 7 4 6 8 8 11 5 1 6 7 4 2 3 4 4 3 2 3 5 7 10 10 8 7 7 6 5 4 4 5 6 7 10 11 10 9 7 6 6 7 7 7 8 9 9 9 8 8 8 7 8 7 7 7 7 7 7 7 7 7 5 5 5 6 7 4 5 8 6 4 3 4 6 5 3 4 7 7 6 5 4 5 6
5 6 7 6 7 8 5 6 7 6 7 8 7 7 7 4 7 8 10 13 6 2 5 6 6 4 4 5 5 4 2 3 5 7 8 9 9 8 7 6 5 5 3 3 6 8 8 10 10 10 10 8 6 5 6 6 6 7 7 8 8 8 8 8 8 8 8 9 9 9 9 8 7 7 7 7 7 6 9 8 3 3 7 7 5 5 6 6 5 6 7 6 5 5 6 7 7
7 5 5 5 8 8 4 5 5 4 6 4 5 7 5 5 6 7 9 11 7 5 7 7 7 6 6 6 6 6 5 5 5 7 6 7 8 7 7 7 8 7 6 5 4 5 6 8 8 8 10 10 10 8 7 7 8 9 8 8 8 8 8 8 8 7 7 8 9 9 9 9 9 8 8 7 8 7 7 8 6 5 7 7 7 6 6 8 9 9 8 8 7 7 8 8 7
7 6 5 4 7 8 5 7 5 6 7 3 6 7 3 4 6 6 7 7 6 7 7 6 8 7 8 8 7 7 6 6 5 4 5 5 5 4 6 8 8 9 10 8 4 4 4 4 4 4 5 6 8 9 9 10 10 10 10 11 10 9 9 9 8 8 7 7 7 8 8 8 8 8 9 9 8 9 8 8 8 7 7 6 6 5 6 6 6 6 7 7 7 7 7 7 6
5 7 6 3 3 4 5 7 4 6 7 6 10 10 6 5 12 12 5 3 3 5 7 7 8 7 7 8 8 7 6 6 5 5 5 2 2 3 6 6 5 11 11 8 6 6 4 2 2 3 3 3 4 6 8 10 10 10 10 11 11 11 11 10 9 8 7 7 6 6 6 6 7 7 8 8 8 9 9 10 10 9 9 9 9 8 8 7 7 8 8 7 7 8 8 8 8
5 5 7 5 3 2 4 5 4 6 5 5 7 10 8 6 19 18 0 2 4 3 7 7 8 5 4 5 4 5 5 5 6 6 4 2 3 4 5 3 5 9 5 5 7 6 4 4 5 4 4 4 4 4 5 6 6 8 8 8 9 9 10 9 10 10 9 9 8 7 6 6 6 7 7 7 7 7 7 8 8 8 8 8 8 8 8 8 8 7 7 7 7 7 7 7 7
9 8 8 8 6 5 3 2 4 6 5 6 5 9 6 2 20 15 -6 6 11 5 5 3 6 6 5 6 5 6 5 5 6 5 5 5 6 5 4 4 6 5 2 4 5 4 6 8 7 5 5 5 5 4 2 2 2 3 4 5 6 6 7 7 8 9 9 9 9 8 8 8 8 7 6 6 5 5 5 5 5 6 6 6 6 5 5 5 5 5 5 5 5 5 5 5 5
11 11 12 11 11 11 8 6 7 6 7 9 8 10 5 2 16 8 -6 9 12 9 11 6 8 6 4 5 3 5 5 4 4 4 6 6 6 5 4 5 5 4 3 3 3 3 7 8 8 8 7 6 5 4 2 2 2 2 2 2 3 3 4 5 6 7 7 7 8 9 9 9 8 8 7 7 6 5 5 4 4 4 4 4 4 3 4 3 3 3 3 3 4 3 3 3 4
8 9 10 10 12 15 14 13 13 12 12 12 10 12 9 4 11 10 3 9 7 7 11 10 12 10 8 8 5 5 3 3 3 4 6 5 5 5 4 5 4 5 4 4 5 5 5 4 5 6 6 6 5 4 4 3 3 3 3 2 2 3 3 4 4 4 4 5 5 6 7 8 8 8 8 8 8 8 7 7 9 11 11 9 7 6 5 5 5 5 5 5 4 4 5 5 5
8 7 7 7 10 11 11 12 13 14 14 12 10 12 15 6 4 8 6 6 6 6 6 7 9 10 11 10 9 9 6 6 5 4 4 4 5 5 5 5 4 5 5 5 5 4 3 2 2 3 3 4 4 4 4 3 3 3 3 3 3 3 3 3 3 3 3 3 3 4 6 6 6 7 7 8 8 8 7 8 9 9 8 9 10 9 7 7 6 7 6 6 6 6 6 6 8
7 8 9 9 12 11 8 8 8 8 9 9 7 9 18 14 6 9 8 6 7 6 6 6 6 7 8 8 8 10 10 11 9 9 8 8 8 7 7 7 6 6 5 4 3 2 3 3 3 3 3 3 4 4 3 3 4 4 4 3 3 3 3 3 3 4 3 4 4 4 3 4 5 6 6 5 4 5 6 8 7 4 2 4 5 6 6 6 6 7 6 7 7 7 7 8 10
8 11 12 8 9 9 7 7 7 7 5 6 5 5 15 19 14 15 15 13 12 9 9 8 7 7 7 7 8 8 9 9 9 11 12 11 10 9 9 8 8 7 6 6 5 5 4 3 3 3 4 4 4 4 4 4 3 3 4 3 4 4 5 5 5 5 5 5 6 5 5 5 5 5 5 5 7 8 8 9 8 5 5 5 4 4 5 6 6 6 6 6 6 5 6 8 9
11 10 11 6 6 6 7 8 9 10 9 9 9 9 13 13 9 12 15 15 14 13 11 9 8 8 8 8 8 8 8 8 8 10 11 10 9 8 8 8 8 7 8 8 8 7 6 6 6 5 5 4 5 5 5 5 4 4 4 4 5 4 5 5 6 6 7 7 7 8 7 6 8 11 13 14 14 11 7 5 3 2 3 5 6 6 7 7 7 7 6 5 5 6 7 8 9
8 7 8 9 11 11 11 12 12 12 13 13 12 12 14 11 7 6 7 10 13 13 12 11 9 8 8 8 8 8 8 8 9 10 9 8 7 7 6 6 6 6 6 7 8 9 8 9 8 7 6 5 5 5 5 6 6 7 7 7 6 6 6 5 5 5 5 5 6 6 6 10 15 14 12 11 8 5 4 2 0 1 4 6 6 5 5 5 5 4 4 5 7 9 8 8 9
9 11 12 13 14 13 13 15 15 15 14 11 10 12 14 13 12 11 9 7 6 7 9 12 12 12 11 10 9 9 9 9 10 10 10 9 8 7 6 6 5 5 5 5 6 7 7 7 7 6 6 5 5 5 5 6 6 7 6 6 6 6 6 5 4 3 3 4 4 6 9 11 10 5 3 2 -0 0 1 -0 1 3 4 4 4 4 4 3 4 6 8 10 10 9 8 6 7
13 14 13 13 12 11 12 11 11 13 14 11 9 11 13 12 12 15 16 13 10 10 9 9 11 13 15 15 14 12 12 11 9 9 10 11 11 10 9 9 7 6 6 5 5 4 4 4 3 4 5 5 5 5 5 5 5 5 4 4 4 4 4 3 3 2 3 3 2 4 4 4 5 3 2 -1 -2 -2 -3 -1 2 2 2 3 3 5 6 6 7 9 9 8 6 6 6 4 4
12 12 13 12 12 12 11 10 9 8 12 12 9 11 13 12 10 11 15 18 18 18 17 14 11 9 10 12 14 15 15 14 12 11 10 10 11 11 10 10 10 9 8 7 7 5 4 4 3 3 4 4 5 5 4 4 4 3 2 2 2 2 2 2 2 2 3 3 3 2 -0 -0 3 5 4 2 3 3 -1 0 2 2 4 6 6 8 9 8 7 7 7 7 6 5 5 4 6
10 11 11 11 12 13 11 10 11 9 9 11 9 10 13 13 11 10 12 16 16 17 19 20 18 15 12 11 11 11 12 13 13 11 10 9 9 9 9 10 12 11 11 10 10 9 8 8 7 7 6 5 5 5 4 4 4 4 2 2 2 2 2 2 2 3 2 2 2 4 4 5 3 3 4 2 2 1 -1 1 2 3 6 6 5 4 4 4 7 8 8 6 4 5 6 6 6
11 11 10 11 12 13 11 9 9 8 10 12 12 13 15 13 13 13 12 12 14 15 17 18 20 21 19 16 15 13 11 10 11 11 11 12 11 12 12 12 13 13 14 14 14 13 12 11 10 9 8 7 6 6 5 5 5 5 4 4 4 4 4 4 4 4 5 4 4 4 6 8 6 5 5 3 3 3 2 3 4 5 5 5 4 4 4 5 5 5 4 4 5 6 7 5 2
12 10 10 12 11 10 11 9 8 8 10 13 13 15 14 11 11 12 11 13 16 17 17 17 19 21 19 16 16 17 17 15 15 14 14 14 12 12 12 12 13 14 14 14 14 13 12 12 12 12 11 10 10 9 8 8 8 8 8 8 9 9 9 9 8 8 8 8 8 7 6 6 6 5 4 5 5 5 4 5 5 5 5 6 7 7 7 5 4 4 4 5 6 6 4 2 1
12 11 13 14 10 9 10 11 11 10 11 11 12 15 15 11 11 12 11 13 15 13 15 16 16 18 19 18 17 17 19 18 18 17 17 19 18 16 15 16 16 16 16 15 15 15 16 16 16 16 16 15 15 15 14 14 14 13 13 13 13 14 14 14 13 12 11 10 10 10 10 10 9 10 12 13 10 9 10 9 9 8 8 9 9 8 7 7 9 11 9 6 4 3 2 3 5
10 12 14 11 10 11 11 12 12 12 13 11 8 11 13 13 12 12 12 11 10 10 13 15 11 9 12 15 16 15 16 17 18 17 15 17 19 19 19 18 19 19 19 20 20 20 20 19 19 18 18 18 18 18 17 17 16 16 16 15 15 15 15 15 14 13 12 12 12 11 12 12 12 13 14 14 13 13 14 13 12 11 10 10 10 9 10 11 11 10 7 4 3 3 4 5 6
9 15 13 10 11 12 11 11 10 11 12 9 7 7 11 14 11 8 11 11 9 10 13 12 9 8 9 10 12 14 14 14 14 14 12 10 10 12 13 14 14 14 14 14 14 14 14 15 16 16 17 16 16 16 16 15 15 14 14 13 13 13 14 14 13 12 11 10 10 10 11 12 12 12 11 11 12 13 12 12 12 12 15 16 16 15 14 12 10 10 9 8 8 8 9 9 7
15 17 13 12 13 12 12 11 10 10 9 9 11 9 11 16 11 7 11 10 9 10 10 10 10 11 11 10 10 11 12 12 12 12 13 11 9 9 9 10 11 11 10 9 9 10 10 10 10 11 12 11 12 12 12 13 13 13 14 13 13 14 14 14 14 13 13 12 11 10 11 12 13 14 13 13 15 13 12 14 15 15 14 12 12 13 14 13 12 12 11 11 12 12 11 10 9
14 13 12 14 13 11 12 11 11 12 9 9 13 12 14 21 15 9 12 13 10 8 10 12 13 14 14 13 13 11 10 11 12 13 13 13 12 11 10 11 11 12 11 10 10 10 11 12 12 12 12 12 11 11 11 12 12 13 14 14 14 14 13 13 14 14 14 14 13 12 12 13 13 12 10 10 8 5 4 6 6 5 3 3 6 8 10 10 10 10 8 6 6 6 6 6 7
12 13 13 13 12 12 12 12 12 12 9 12 15 13 16 23 19 8 8 15 13 7 9 13 12 13 13 13 14 15 13 12 11 12 12 13 13 13 12 12 12 12 12 12 12 11 11 11 11 12 12 13 13 13 13 13 13 13 13 13 13 13 13 12 13 14 15 15 16 16 15 13 11 9 8 8 7 9 13 13 8 2 1 5 7 6 6 6 4 4 6 8 7 6 6 7 8
13 14 14 14 14 15 14 13 14 12 13 17 16 12 11 15 18 9 3 11 16 9 6 8 8 9 8 8 10 11 13 13 12 11 10 10 11 11 11 11 10 11 11 12 12 11 11 11 11 11 11 13 14 14 15 15 14 14 14 14 14 14 15 14 14 14 15 15 15 16 17 15 12 12 11 9 7 7 9 11 13 14 13 11 9 7 8 9 7 4 4 7 8 5 4 4 5
11 12 14 15 15 14 12 12 12 11 13 15 13 11 10 10 13 11 3 6 15 14 9 8 8 9 9 9 10 10 10 11 12 12 11 10 9 9 9 9 9 9 9 10 10 10 11 12 12 12 12 13 13 14 14 14 14 14 14 14 15 16 16 15 15 14 14 14 14 14 15 16 15 14 13 11 10 9 6 3 5 10 13 13 13 13 13 16 18 17 14 12 11 10 10 10 11
8 9 9 8 8 9 10 11 12 11 11 11 10 8 9 10 11 11 7 5 10 14 12 11 10 10 10 10 11 12 13 13 13 13 13 12 11 10 10 10 10 10 10 9 9 10 10 11 11 12 12 12 11 11 11 11 12 12 12 13 13 14 14 14 13 13 13 12 11 12 13 15 17 17 15 11 8 9 12 13 14 15 15 15 16 18 19 20 22 23 23 23 22 21 20 20 21
14 14 12 10 10 13 14 14 14 15 13 9 8 7 8 11 11 10 9 6 6 8 10 12 12 11 12 11 11 12 14 16 17 17 17 15 14 12 11 11 11 11 11 11 11 11 11 10 10 11 11 11 11 11 10 10 10 9 9 10 10 10 11 11 10 11 11 10 10 10 10 11 14 16 18 17 13 8 8 12 18 22 20 16 15 13 11 11 11 11 12 14 16 17 18 18 18
14 14 14 12 11 10 9 8 8 9 7 3 5 8 9 10 11 12 10 7 7 8 10 13 14 14 14 13 12 11 12 14 16 17 17 16 15 14 12 11 10 9 10 11 12 12 12 11 10 10 11 11 11 11 11 11 10 9 8 8 8 8 8 8 8 8 9 10 10 10 9 11 12 11 11 12 13 13 11 10 13 16 15 12 11 8 6 6 6 7 8 9 10 12 12 13 13
3 7 10 10 9 7 5 6 6 5 3 2 5 8 8 8 9 10 10 9 9 9 9 10 10 12 13 13 13 11 9 10 12 13 12 11 11 11 11 11 11 9 8 8 8 9 10 11 10 10 10 10 10 11 11 11 10 10 9 9 7 7 7 7 7 8 8 8 9 9 10 12 14 16 16 14 13 12 11 10 9 10 12 12 14 16 17 19 19 19 18 17 16 14 14 13 13
9 13 17 17 17 15 13 12 12 11 10 9 9 9 9 9 9 9 10 10 9 8 7 7 8 9 10 12 13 14 13 13 13 11 10 11 10 9 10 11 11 10 10 10 10 9 9 9 9 9 8 8 8 9 9 10 11 11 10 9 8 7 6 4 4 6 7 7 7 8 8 8 9 11 15 17 19 18 17 15 12 11 11 12 13 14 15 16 17 18 18 18 18 16 16 15 13
13 13 12 9 8 8 6 6 9 10 10 10 11 10 10 10 10 10 10 9 8 7 7 7 7 8 8 9 11 12 13 12 10 6 3 5 6 7 8 8 9 10 10 10 10 11 11 10 9 9 9 10 10 9 8 9 11 12 12 11 10 9 7 6 5 5 5 6 6 6 6 6 6 6 7 9 12 15 16 16 16 16 14 14 12 11 10 10 11 11 11 12 13 12 11 11 11
14 14 14 13 14 15 13 11 11 10 10 11 11 9 9 9 7 7 7 8 8 7 7 7 6 6 6 7 8 9 10 10 10 9 7 8 8 7 7 7 8 9 10 11 11 11 10 8 9 11 12 14 15 14 11 10 10 11 12 12 13 13 12 10 9 8 7 7 7 8 8 7 7 7 7 7 7 8 9 8 8 8 9 9 8 8 8 8 8 7 6 6 8 9 9 9 8
15 15 15 14 15 15 14 12 11 11 10 9 10 9 9 9 8 8 8 8 8 8 8 8 9 10 10 10 10 11 11 10 10 11 11 13 13 12 10 8 5 5 5 6 5 3 3 4 7 10 11 12 14 15 14 13 12 11 11 12 13 14 14 14 14 12 11 9 8 8 9 9 9 9 9 8 8 7 7 6 6 6 6 6 5 5 5 4 4 4 4 5 5 5 4 4 4
11 11 11 11 11 12 13 11 13 18 15 13 14 11 10 12 13 11 10 9 9 9 9 9 10 11 11 11 12 13 14 15 14 13 12 11 12 13 13 13 11 8 6 4 3 2 4 6 7 7 7 9 11 14 14 13 12 12 12 11 10 11 11 12 14 15 14 13 12 10 9 8 8 9 9 9 9 8 7 6 6 6 6 7 8 8 7 7 6 5 5 4 4 3 4 5 7
Height
5762 5762 5763 5764 5766 5767 5768 5769 5769 5770 5772 5774 5777 5779 5780 5781 5781 5783 5784 5785 5786 5787 5787 5788 5789 5789 5791 5792 5792 5794 5794 5795 5795 5796 5798 5802 5803 5804 5805 5806 5807 5809 5810 5811 5811 5811 5811 5811 5812 5812 5813 5814 5815 5816 5818 5819 5820 5822 5822 5823 5824 5825 5825 5826 5827 5827 5828 5828 5829 5830 5831 5832 5833 5834 5834 5835 5836 5837 5838 5839 5840 5841 5842 5842 5842 5842 5842 5843 5844 5845 5845 5845 5845 5845 5846 5846 5847
5759 5759 5761 5761 5762 5765 5766 5767 5768 5769 5770 5773 5776 5777 5778 5778 5779 5781 5781 5782 5783 5783 5784 5786 5787 5788 5788 5789 5790 5791 5792 5793 5793 5794 5796 5798 5800 5801 5802 5802 5803 5805 5807 5808 5808 5809 5809 5809 5809 5809 5810 5811 5812 5813 5815 5816 5818 5819 5820 5820 5821 5822 5822 5823 5824 5824 5825 5825 5826 5827 5828 5829 5830 5831 5832 5832 5833 5834 5835 5836 5837 5838 5839 5839 5839 5839 5839 5840 5840 5841 5842 5842 5842 5843 5843 5843 5844
5756 5757 5759 5759 5760 5762 5764 5765 5766 5768 5769 5772 5775 5776 5776 5776 5778 5778 5778 5779 5779 5780 5782 5784 5785 5786 5786 5787 5788 5789 5790 5791 5791 5791 5793 5794 5796 5797 5798 5799 5800 5801 5803 5804 5805 5805 5806 5806 5807 5807 5808 5808 5809 5811 5812 5813 5814 5815 5816 5817 5818 5819 5819 5820 5821 5821 5822 5823 5824 5824 5825 5826 5827 5828 5829 5830 5830 5831 5832 5832 5833 5834 5835 5835 5836 5836 5836 5836 5837 5838 5839 5839 5839 5840 5840 5840 5840
5754 5755 5756 5757 5758 5760 5761 5763 5765 5767 5768 5771 5773 5773 5773 5774 5775 5774 5775 5776 5776 5778 5780 5781 5782 5783 5784 5785 5785 5786 5788 5788 5788 5789 5789 5791 5792 5794 5795 5796 5797 5798 5799 5800 5801 5802 5803 5803 5804 5805 5805 5805 5806 5807 5808 5809 5811 5812 5813 5814 5815 5816 5816 5817 5818 5818 5819 5820 5821 5822 5822 5823 5824 5825 5826 5827 5827 5828 5829 5829 5830 5831 5831 5832 5832 5833 5833 5833 5834 5834 5835 5836 5836 5836 5837 5837 5837
5751 5752 5753 5754 5755 5757 5759 5761 5764 5766 5768 5769 5770 5770 5771 5771 5771 5771 5772 5773 5774 5775 5777 5778 5779 5780 5781 5782 5783 5784 5785 5785 5786 5786 5786 5787 5789 5790 5792 5792 5793 5794 5795 5796 5797 5799 5800 5800 5801 5801 5802 5802 5802 5803 5805 5806 5807 5808 5809 5810 5812 5813 5813 5814 5814 5815 5816 5817 5818 5819 5819 5820 5821 5822 5822 5823 5824 5824 5825 5826 5826 5827 5827 5828 5829 5829 5830 5830 5830 5831 5832 5832 5833 5833 5833 5834 5834
5748 5749 5751 5751 5752 5754 5756 5759 5762 5764 5766 5766 5767 5768 5767 5768 5768 5768 5769 5770 5771 5771 5773 5775 5776 5777 5778 5779 5780 5781 5782 5782 5783 5783 5783 5784 5785 5787 5788 5789 5790 5791 5792 5793 5794 5795 5796 5796 5797 5798 5798 5798 5799 5800 5802 5803 5804 5805 5806 5807 5808 5809 5810 5810 5811 5811 5812 5814 5815 5815 5816 5816 5817 5818 5819 5820 5820 5821 5821 5822 5822 5823 5823 5824 5825 5825 5826 5826 5827 5827 5828 5829 5829 5830 5830 5830 5831
5745 5747 5748 5749 5750 5752 5753 5756 5759 5761 5763 5763 5764 5765 5764 5765 5765 5766 5767 5767 5768 5769 5770 5772 5773 5774 5774 5776 5777 5777 5778 5779 5779 5780 5780 5780 5781 5783 5785 5786 5787 5788 5789 5789 5790 5791 5792 5792 5793 5794 5794 5795 5796 5797 5799 5800 5800 5801 5803 5804 5805 5806 5807 5807 5808 5808 5809 5810 5811 5811 5812 5813 5814 5814 5815 5816 5817 5817 5818 5818 5818 5819 5819 5820 5821 5822 5823 5823 5823 5824 5824 5825 5826 5826 5826 5827 5827
5743 5744 5745 5746 5747 5749 5751 5754 5757 5758 5760 5760 5761 5761 5761 5762 5763 5764 5764 5765 5766 5766 5767 5768 5770 5771 5772 5773 5773 5773 5774 5774 5775 5775 5775 5776 5777 5780 5781 5783 5783 5784 5785 5786 5786 5787 5788 5789 5789 5790 5790 5792 5793 5794 5795 5796 5797 5798 5799 5801 5801 5802 5803 5804 5804 5804 5805 5806 5807 5808 5808 5808 5810 5810 5811 5812 5813 5813 5814 5814 5814 5815 5816 5817 5818 5818 5819 5820 5820 5821 5821 5822 5822 5822 5822 5823 5824
5740 5742 5743 5744 5745 5747 5749 5751 5754 5756 5757 5758 5758 5758 5758 5758 5759 5761 5761 5762 5763 5763 5764 5765 5766 5768 5769 5770 5770 5770 5770 5770 5771 5771 5771 5773 5774 5776 5778 5779 5780 5781 5782 5782 5783 5783 5784 5785 5786 5786 5787 5788 5789 5790 5791 5792 5794 5794 5795 5797 5798 5798 5799 5800 5799 5800 5801 5802 5803 5804 5803 5804 5806 5806 5807 5808 5809 5809 5810 5810 5811 5812 5812 5813 5813 5814 5814 5815 5816 5816 5817 5818 5818 5818 5818 5819 5820
5738 5739 5740 5741 5743 5744 5747 5749 5751 5753 5754 5754 5755 5755 5755 5755 5756 5757 5758 5759 5760 5760 5761 5761 5763 5765 5766 5767 5767 5768 5767 5767 5768 5768 5768 5770 5771 5772 5774 5775 5777 5777 5778 5778 5779 5780 5780 5781 5782 5782 5783 5784 5785 5786 5787 5788 5790 5791 5791 5792 5793 5794 5795 5796 5795 5796 5797 5798 5799 5799 5799 5800 5801 5802 5802 5803 5805 5805 5805 5806 5807 5808 5808 5809 5809 5809 5810 5810 5811 5812 5812 5813 5813 5813 5813 5814 5815
5736 5738 5739 5739 5741 5743 5745 5747 5748 5750 5750 5751 5752 5751 5751 5752 5752 5753 5754 5755 5756 5757 5758 5758 5760 5761 5763 5764 5764 5764 5764 5765 5765 5765 5765 5766 5767 5768 5769 5770 5772 5773 5774 5774 5775 5776 5776 5777 5777 5778 5779 5780 5781 5782 5783 5785 5786 5787 5787 5787 5788 5790 5791 5791 5791 5792 5794 5794 5794 5795 5795 5796 5797 5797 5798 5799 5800 5801 5801 5802 5803 5803 5804 5805 5805 5805 5806 5806 5807 5807 5808 5808 5808 5808 5809 5809 5810
5734 5736 5736 5737 5739 5741 5743 5744 5746 5747 5747 5749 5750 5748 5747 5748 5749 5750 5750 5751 5752 5753 5754 5755 5756 5758 5759 5760 5761 5761 5761 5761 5761 5762 5762 5762 5763 5763 5765 5766 5767 5768 5770 5770 5771 5771 5772 5772 5773 5774 5775 5776 5777 5778 5779 5781 5782 5783 5783 5783 5784 5786 5787 5787 5787 5788 5789 5789 5790 5791 5792 5792 5793 5793 5794 5795 5796 5796 5797 5798 5798 5799 5800 5800 5801 5801 5801 5802 5802 5803 5804 5804 5803 5804 5805 5805 5806
5731 5733 5733 5735 5737 5738 5739 5741 5743 5744 5745 5747 5747 5745 5744 5745 5746 5746 5747 5748 5749 5750 5751 5752 5753 5754 5755 5757 5757 5757 5757 5757 5758 5758 5758 5759 5759 5760 5761 5762 5763 5764 5766 5767 5767 5768 5768 5769 5769 5770 5771 5772 5773 5774 5775 5776 5778 5779 5779 5780 5781 5782 5783 5783 5783 5783 5784 5785 5786 5787 5787 5787 5788 5788 5789 5791 5792 5792 5793 5794 5794 5795 5795 5795 5796 5796 5797 5797 5797 5798 5800 5800 5799 5800 5800 5801 5801
5728 5729 5730 5732 5734 5735 5736 5738 5739 5740 5743 5744 5742 5740 5740 5741 5742 5742 5743 5744 5745 5746 5748 5749 5749 5750 5751 5753 5753 5753 5753 5753 5754 5755 5755 5756 5756 5757 5758 5758 5759 5760 5762 5763 5764 5764 5765 5765 5766 5766 5767 5768 5769 5770 5771 5772 5773 5774 5775 5776 5776 5777 5778 5779 5779 5779 5780 5781 5781 5783 5783 5783 5784 5785 5786 5787 5788 5788 5789 5789 5789 5790 5790 5790 5791 5791 5792 5792 5792 5793 5795 5796 5795 5795 5796 5796 5797
5726 5726 5727 5728 5730 5732 5733 5735 5735 5737 5740 5740 5737 5736 5737 5738 5738 5739 5740 5741 5742 5743 5744 5745 5746 5746 5748 5749 5749 5749 5749 5749 5750 5751 5752 5753 5754 5754 5755 5755 5755 5756 5758 5759 5760 5761 5761 5762 5762 5763 5763 5764 5764 5765 5766 5767 5768 5769 5770 5771 5771 5772 5773 5774 5775 5776 5776 5777 5777 5778 5779 5779 5780 5781 5782 5783 5783 5783 5784 5784 5784 5785 5785 5785 5786 5787 5787 5788 5788 5788 5790 5791 5790 5790 5791 5792 5792
5723 5723 5723 5724 5727 5729 5730 5731 5731 5733 5736 5735 5733 5733 5735 5735 5734 5735 5736 5737 5739 5740 5741 5742 5743 5744 5745 5745 5745 5746 5746 5746 5747 5748 5749 5750 5751 5751 5751 5751 5752 5752 5754 5755 5756 5756 5757 5758 5758 5759 5759 5760 5760 5761 5761 5762 5763 5764 5765 5766 5767 5768 5769 5770 5771 5772 5772 5773 5774 5774 5775 5776 5776 5776 5777 5778 5778 5779 5779 5779 5779 5780 5781 5781 5781 5782 5783 5783 5783 5783 5785 5785 5785 5786 5786 5787 5787
5719 5719 5719 5721 5723 5725 5727 5728 5728 5729 5730 5730 5730 5730 5731 5731 5731 5731 5732 5733 5735 5736 5737 5738 5739 5740 5740 5740 5741 5742 5742 5743 5744 5745 5746 5747 5748 5748 5747 5747 5748 5748 5749 5750 5751 5752 5753 5754 5754 5755 5755 5756 5756 5757 5757 5757 5758 5759 5760 5761 5762 5763 5764 5765 5766 5768 5768 5769 5770 5770 5771 5772 5772 5772 5772 5773 5773 5774 5775 5775 5775 5775 5776 5776 5776 5777 5778 5778 5777 5779 5780 5779 5780 5780 5781 5782 5783
5716 5716 5716 5718 5720 5721 5723 5724 5724 5725 5725 5725 5726 5726 5727 5728 5727 5726 5728 5729 5730 5732 5734 5734 5735 5736 5736 5736 5737 5738 5739 5740 5741 5742 5743 5744 5744 5744 5743 5743 5744 5744 5745 5746 5747 5748 5749 5750 5750 5751 5751 5752 5753 5753 5753 5753 5753 5754 5755 5756 5757 5758 5759 5760 5761 5763 5763 5764 5766 5766 5767 5768 5767 5768 5768 5768 5769 5770 5771 5771 5771 5770 5771 5771 5770 5771 5773 5773 5772 5773 5774 5774 5774 5775 5776 5777 5777
5712 5712 5713 5715 5717 5718 5719 5719 5720 5720 5720 5720 5721 5722 5722 5723 5723 5722 5724 5725 5726 5728 5730 5730 5730 5731 5731 5732 5732 5733 5735 5737 5738 5738 5739 5739 5739 5739 5738 5738 5739 5740 5740 5741 5742 5743 5744 5745 5746 5747 5747 5748 5749 5749 5749 5750 5750 5749 5750 5750 5751 5752 5753 5755 5756 5757 5758 5759 5761 5761 5762 5762 5762 5763 5763 5764 5764 5765 5766 5766 5766 5766 5766 5766 5766 5766 5767 5767 5767 5768 5768 5768 5769 5770 5770 5771 5771
5708 5708 5709 5712 5713 5714 5715 5715 5715 5715 5714 5715 5716 5717 5718 5719 5718 5718 5721 5722 5723 5725 5726 5726 5726 5727 5727 5727 5728 5728 5730 5732 5732 5733 5734 5734 5734 5734 5734 5734 5734 5735 5736 5737 5738 5738 5739 5740 5741 5742 5742 5743 5745 5745 5745 5745 5746 5746 5746 5746 5747 5748 5748 5749 5750 5751 5753 5754 5755 5756 5756 5757 5757 5758 5759 5759 5759 5760 5760 5761 5761 5761 5761 5761 5761 5761 5761 5762 5762 5762 5763 5763 5763 5764 5765 5766 5766
5704 5704 5705 5707 5708 5710 5711 5710 5710 5710 5709 5710 5711 5712 5714 5714 5712 5714 5716 5717 5721 5723 5721 5720 5720 5721 5722 5723 5723 5724 5725 5727 5727 5729 5729 5730 5730 5729 5729 5730 5730 5731 5732 5733 5733 5733 5733 5734 5735 5737 5738 5738 5740 5741 5741 5741 5741 5742 5743 5743 5743 5743 5744 5744 5745 5746 5747 5748 5750 5751 5751 5752 5752 5754 5754 5753 5753 5755 5755 5755 5756 5756 5757 5757 5756 5755 5756 5757 5757 5757 5757 5758 5758 5759 5760 5760 5761
5699 5701 5701 5702 5703 5704 5706 5706 5705 5705 5705 5705 5706 5706 5708 5708 5707 5711 5710 5712 5719 5719 5715 5714 5715 5716 5717 5718 5718 5719 5721 5722 5723 5724 5725 5725 5726 5726 5726 5726 5727 5727 5727 5728 5728 5728 5729 5729 5730 5731 5732 5734 5734 5735 5736 5737 5737 5737 5738 5738 5738 5739 5739 5740 5740 5741 5742 5743 5744 5745 5746 5746 5747 5747 5748 5748 5748 5750 5750 5750 5750 5751 5752 5752 5751 5751 5751 5752 5752 5752 5752 5753 5754 5754 5755 5755 5756
5695 5696 5697 5697 5698 5699 5701 5701 5701 5701 5700 5701 5700 5700 5703 5703 5704 5706 5705 5711 5716 5713 5710 5710 5710 5711 5712 5713 5714 5715 5716 5718 5719 5720 5720 5720 5721 5721 5721 5722 5722 5722 5723 5724 5723 5723 5724 5724 5725 5726 5727 5728 5729 5730 5731 5732 5732 5732 5733 5733 5734 5734 5734 5735 5736 5737 5737 5738 5739 5740 5741 5741 5741 5741 5742 5743 5743 5744 5744 5745 5745 5745 5746 5746 5746 5747 5747 5747 5748 5748 5748 5749 5749 5750 5750 5751 5751
5690 5692 5693 5693 5694 5694 5695 5695 5696 5696 5695 5696 5694 5695 5698 5698 5699 5700 5702 5710 5710 5705 5706 5705 5705 5706 5707 5708 5709 5710 5711 5713 5715 5714 5715 5715 5716 5716 5717 5717 5717 5718 5719 5719 5718 5718 5719 5719 5720 5721 5722 5722 5723 5725 5726 5727 5727 5728 5728 5728 5729 5729 5730 5730 5731 5732 5733 5734 5734 5735 5735 5735 5736 5736 5737 5737 5737 5738 5738 5739 5739 5740 5740 5741 5741 5741 5742 5742 5743 5743 5743 5744 5744 5744 5745 5745 5746
5686 5688 5689 5689 5689 5690 5689 5689 5691 5690 5690 5690 5688 5690 5693 5692 5691 5694 5702 5707 5702 5698 5700 5699 5700 5700 5701 5703 5704 5704 5705 5707 5708 5708 5709 5710 5710 5711 5711 5712 5711 5713 5714 5713 5713 5714 5714 5714 5716 5716 5716 5717 5717 5719 5720 5722 5723 5723 5723 5723 5724 5724 5725 5726 5727 5728 5728 5729 5729 5729 5729 5730 5730 5730 5731 5731 5732 5732 5732 5733 5734 5734 5735 5735 5736 5736 5736 5737 5737 5737 5738 5738 5738 5739 5739 5740 5740
5683 5683 5683 5684 5683 5684 5684 5684 5685 5684 5685 5684 5683 5685 5686 5686 5684 5690 5701 5700 5694 5693 5693 5693 5693 5695 5697 5698 5698 5699 5699 5701 5702 5702 5703 5704 5705 5706 5706 5705 5707 5709 5708 5707 5709 5710 5708 5709 5711 5711 5711 5712 5712 5713 5714 5716 5717 5718 5718 5718 5719 5719 5720 5721 5722 5723 5724 5724 5724 5724 5724 5724 5725 5725 5725 5726 5726 5726 5727 5728 5728 5729 5729 5730 5730 5730 5731 5731 5731 5731 5732 5732 5732 5732 5733 5733 5734
5679 5677 5677 5678 5677 5677 5678 5679 5680 5678 5679 5679 5678 5678 5680 5679 5678 5690 5697 5690 5688 5690 5688 5687 5688 5690 5692 5692 5692 5692 5693 5695 5695 5695 5696 5699 5701 5701 5700 5700 5702 5703 5701 5702 5704 5704 5704 5705 5706 5706 5707 5708 5708 5709 5709 5710 5711 5712 5713 5713 5714 5714 5714 5715 5716 5718 5719 5719 5719 5719 5719 5719 5719 5720 5720 5720 5721 5721 5721 5722 5722 5723 5724 5724 5725 5725 5725 5725 5725 5725 5725 5726 5726 5726 5727 5727 5727
5672 5670 5670 5673 5671 5671 5672 5673 5673 5672 5673 5674 5671 5669 5672 5673 5676 5690 5690 5681 5684 5684 5682 5683 5683 5685 5685 5685 5686 5685 5688 5689 5688 5689 5692 5694 5694 5694 5694 5696 5697 5696 5696 5697 5697 5698 5700 5700 5700 5701 5702 5703 5703 5704 5704 5704 5705 5706 5707 5708 5708 5708 5709 5709 5711 5712 5713 5713 5714 5714 5714 5714 5714 5715 5715 5715 5715 5715 5715 5716 5716 5717 5718 5718 5719 5719 5719 5719 5719 5719 5719 5719 5720 5720 5720 5720 5721
5666 5665 5664 5666 5665 5665 5668 5667 5666 5666 5667 5669 5663 5658 5664 5669 5676 5686 5679 5672 5676 5675 5676 5679 5678 5680 5679 5679 5679 5680 5682 5683 5682 5684 5687 5688 5687 5688 5689 5690 5690 5690 5691 5691 5691 5693 5695 5694 5694 5696 5697 5698 5698 5698 5699 5699 5700 5700 5701 5702 5702 5703 5703 5704 5705 5706 5707 5708 5708 5708 5708 5709 5709 5709 5709 5709 5709 5709 5710 5710 5711 5711 5712 5712 5713 5713 5713 5713 5713 5713 5713 5713 5713 5713 5714 5714 5715
5661 5659 5657 5660 5659 5662 5666 5662 5660 5661 5661 5661 5654 5648 5656 5667 5674 5677 5668 5664 5668 5666 5669 5672 5672 5674 5673 5673 5673 5674 5677 5676 5678 5680 5681 5681 5681 5682 5682 5683 5683 5683 5685 5685 5686 5687 5687 5687 5689 5690 5690 5691 5692 5692 5693 5693 5694 5694 5695 5696 5696 5697 5697 5698 5698 5699 5701 5702 5703 5703 5703 5703 5703 5703 5703 5703 5703 5704 5704 5705 5705 5705 5705 5706 5706 5706 5706 5706 5706 5706 5706 5707 5707 5707 5708 5708 5709
5656 5654 5653 5655 5653 5659 5661 5656 5656 5655 5653 5652 5645 5640 5650 5664 5669 5666 5659 5658 5660 5659 5662 5664 5665 5667 5667 5667 5667 5669 5671 5671 5672 5674 5675 5675 5675 5675 5675 5676 5676 5676 5678 5679 5680 5680 5680 5682 5682 5683 5684 5685 5685 5686 5687 5687 5688 5688 5689 5690 5691 5691 5692 5692 5692 5693 5694 5695 5696 5697 5697 5697 5696 5696 5696 5697 5697 5698 5698 5699 5699 5698 5699 5699 5699 5699 5699 5699 5700 5700 5700 5700 5701 5701 5702 5703 5704
5650 5648 5650 5651 5648 5653 5654 5649 5650 5648 5646 5645 5639 5636 5645 5659 5663 5657 5653 5653 5652 5652 5655 5657 5657 5659 5660 5661 5661 5663 5665 5665 5666 5668 5669 5669 5668 5668 5669 5669 5669 5669 5671 5671 5672 5673 5674 5675 5675 5676 5677 5678 5678 5679 5680 5681 5682 5682 5683 5684 5685 5686 5686 5687 5687 5687 5688 5689 5690 5691 5690 5690 5690 5690 5690 5690 5690 5691 5691 5692 5692 5692 5692 5692 5692 5692 5692 5692 5693 5694 5694 5694 5695 5695 5696 5697 5698
5647 5643 5644 5645 5642 5644 5645 5643 5643 5640 5638 5637 5634 5633 5642 5653 5653 5649 5648 5647 5645 5646 5648 5649 5650 5651 5652 5654 5655 5657 5659 5659 5660 5663 5663 5661 5661 5661 5661 5661 5661 5662 5663 5664 5665 5667 5667 5668 5669 5670 5670 5670 5671 5672 5673 5674 5675 5676 5677 5677 5679 5680 5680 5681 5681 5681 5682 5683 5684 5685 5684 5684 5683 5683 5683 5683 5683 5683 5684 5684 5685 5685 5685 5685 5685 5685 5685 5686 5686 5687 5688 5688 5689 5689 5689 5690 5691
5643 5638 5636 5637 5636 5636 5637 5637 5637 5634 5632 5632 5630 5630 5638 5646 5644 5641 5642 5640 5637 5639 5641 5642 5642 5643 5645 5646 5647 5649 5651 5653 5655 5657 5655 5653 5653 5653 5653 5653 5653 5655 5656 5658 5659 5660 5661 5661 5662 5662 5662 5663 5664 5665 5666 5667 5668 5669 5670 5670 5672 5673 5674 5674 5674 5675 5676 5677 5678 5678 5678 5677 5677 5676 5676 5676 5676 5676 5677 5677 5678 5678 5678 5678 5678 5678 5679 5679 5680 5681 5681 5682 5682 5682 5682 5683 5684
5634 5631 5629 5631 5632 5631 5632 5632 5630 5628 5626 5625 5625 5625 5631 5638 5637 5633 5634 5632 5630 5632 5634 5636 5636 5636 5638 5638 5639 5642 5643 5646 5650 5650 5646 5645 5646 5646 5646 5646 5646 5648 5650 5652 5653 5653 5654 5655 5655 5655 5655 5656 5656 5657 5658 5659 5661 5661 5662 5663 5664 5666 5667 5667 5667 5668 5669 5670 5671 5671 5671 5671 5670 5669 5669 5669 5670 5670 5670 5670 5671 5671 5672 5672 5672 5672 5672 5673 5673 5674 5674 5675 5675 5675 5676 5676 5677
5627 5627 5626 5626 5627 5627 5627 5625 5624 5621 5618 5619 5620 5619 5622 5629 5631 5627 5625 5625 5624 5627 5629 5629 5630 5629 5630 5631 5632 5634 5635 5639 5642 5640 5638 5638 5639 5639 5638 5638 5639 5641 5643 5645 5647 5647 5648 5647 5647 5648 5648 5648 5648 5649 5650 5652 5652 5654 5655 5655 5657 5658 5659 5659 5660 5660 5662 5662 5663 5664 5664 5663 5663 5662 5662 5662 5663 5663 5663 5663 5664 5664 5665 5665 5665 5665 5665 5666 5666 5666 5667 5668 5668 5669 5669 5670 5670
5622 5622 5621 5621 5620 5621 5622 5619 5617 5613 5609 5614 5615 5613 5616 5623 5625 5620 5619 5620 5619 5622 5624 5623 5623 5623 5623 5624 5625 5627 5628 5631 5632 5630 5630 5630 5630 5630 5630 5631 5632 5635 5637 5638 5639 5640 5640 5639 5639 5641 5642 5642 5642 5642 5643 5644 5645 5646 5646 5647 5649 5650 5650 5652 5652 5654 5654 5655 5655 5656 5656 5655 5655 5655 5655 5655 5655 5655 5655 5656 5656 5657 5657 5658 5658 5658 5658 5658 5659 5660 5660 5661 5661 5662 5662 5663 5664
5616 5616 5615 5615 5614 5615 5616 5613 5611 5606 5602 5609 5610 5607 5612 5617 5617 5614 5613 5614 5614 5616 5617 5617 5617 5615 5615 5616 5617 5619 5620 5622 5623 5622 5622 5621 5621 5622 5622 5624 5627 5629 5630 5631 5632 5632 5631 5631 5632 5633 5634 5634 5635 5635 5636 5637 5637 5637 5638 5639 5641 5642 5643 5644 5645 5646 5647 5647 5647 5648 5647 5647 5647 5647 5647 5647 5647 5648 5648 5648 5649 5649 5650 5651 5651 5651 5651 5651 5652 5652 5653 5654 5654 5655 5655 5656 5657
5610 5609 5608 5609 5610 5608 5608 5607 5605 5600 5598 5603 5604 5602 5609 5612 5610 5610 5609 5608 5609 5610 5610 5610 5610 5608 5608 5608 5608 5610 5611 5613 5614 5614 5613 5613 5613 5614 5616 5619 5621 5622 5623 5624 5625 5625 5624 5624 5625 5625 5625 5626 5627 5628 5629 5629 5629 5629 5630 5632 5633 5634 5636 5636 5637 5638 5638 5639 5639 5640 5639 5639 5639 5639 5639 5639 5639 5639 5640 5640 5641 5642 5642 5643 5643 5643 5644 5644 5645 5645 5646 5646 5647 5647 5648 5649 5649
5604 5604 5602 5604 5605 5601 5601 5602 5598 5595 5594 5596 5597 5596 5603 5607 5604 5605 5604 5601 5604 5604 5603 5603 5602 5601 5601 5599 5599 5600 5602 5604 5606 5607 5607 5606 5607 5608 5611 5613 5614 5615 5616 5617 5618 5617 5617 5617 5617 5617 5618 5619 5620 5620 5621 5621 5620 5621 5622 5624 5625 5627 5628 5628 5629 5630 5630 5630 5631 5631 5631 5631 5631 5631 5631 5631 5631 5631 5631 5632 5632 5633 5634 5635 5635 5636 5636 5637 5637 5638 5638 5638 5639 5640 5641 5641 5641
5599 5599 5598 5598 5598 5595 5594 5595 5592 5592 5591 5591 5590 5589 5597 5602 5599 5601 5600 5596 5599 5598 5596 5597 5595 5592 5592 5591 5591 5592 5595 5597 5600 5601 5600 5600 5601 5602 5604 5605 5606 5608 5609 5609 5609 5608 5608 5609 5609 5610 5610 5611 5612 5612 5613 5612 5612 5613 5614 5616 5617 5618 5619 5620 5621 5621 5621 5621 5622 5622 5622 5622 5622 5622 5622 5622 5622 5621 5622 5623 5624 5625 5626 5627 5628 5628 5629 5629 5629 5630 5630 5631 5632 5632 5633 5633 5634
5594 5596 5595 5592 5591 5589 5589 5588 5586 5586 5588 5588 5585 5582 5589 5596 5594 5596 5595 5592 5593 5592 5591 5591 5587 5583 5583 5585 5586 5587 5589 5591 5592 5593 5593 5593 5595 5596 5597 5598 5598 5600 5600 5601 5601 5601 5602 5601 5602 5602 5603 5604 5604 5604 5604 5604 5604 5604 5606 5607 5609 5610 5610 5611 5611 5612 5612 5613 5614 5614 5614 5614 5613 5613 5613 5613 5613 5613 5613 5614 5616 5616 5617 5619 5620 5620 5621 5621 5622 5622 5623 5623 5624 5624 5625 5626 5627
5589 5592 5590 5586 5585 5584 5584 5583 5580 5581 5582 5583 5582 5577 5580 5588 5591 5591 5589 5588 5588 5587 5586 5584 5579 5577 5579 5580 5582 5583 5584 5585 5585 5586 5586 5587 5588 5589 5590 5590 5591 5592 5593 5594 5594 5594 5595 5594 5594 5595 5596 5597 5597 5597 5597 5596 5596 5597 5598 5599 5600 5601 5602 5603 5603 5603 5604 5605 5605 5605 5605 5605 5605 5605 5606 5605 5605 5605 5605 5606 5608 5608 5609 5611 5612 5612 5613 5613 5614 5614 5615 5615 5616 5616 5618 5620 5620
5585 5586 5584 5581 5581 5580 5579 5578 5575 5575 5576 5576 5578 5574 5572 5579 5587 5586 5583 5583 5582 5582 5580 5575 5574 5575 5576 5577 5578 5578 5579 5580 5579 5579 5580 5581 5582 5583 5583 5584 5584 5585 5586 5586 5586 5587 5587 5587 5588 5588 5589 5590 5590 5590 5590 5590 5589 5590 5590 5591 5593 5594 5594 5595 5595 5596 5596 5596 5597 5597 5596 5597 5597 5598 5599 5598 5597 5597 5598 5598 5600 5600 5601 5602 5603 5604 5604 5605 5605 5606 5607 5607 5608 5609 5611 5612 5612
5580 5580 5578 5577 5576 5575 5574 5573 5572 5570 5569 5571 5574 5572 5567 5571 5580 5580 5577 5577 5575 5574 5572 5569 5571 5573 5572 5573 5574 5574 5574 5574 5574 5574 5574 5575 5576 5577 5577 5578 5578 5578 5579 5579 5579 5579 5580 5580 5580 5581 5581 5582 5582 5582 5582 5583 5583 5583 5584 5584 5585 5586 5586 5587 5587 5587 5588 5587 5588 5588 5588 5589 5589 5591 5592 5592 5591 5590 5590 5591 5591 5592 5593 5593 5594 5596 5596 5596 5597 5598 5598 5599 5600 5601 5602 5603 5603
5575 5574 5572 5572 5571 5570 5569 5568 5568 5565 5564 5567 5569 5568 5564 5564 5573 5574 5570 5570 5568 5567 5566 5565 5567 5568 5568 5569 5569 5569 5569 5569 5569 5569 5569 5569 5569 5570 5571 5571 5572 5572 5572 5572 5572 5573 5573 5573 5573 5573 5574 5574 5575 5575 5575 5575 5575 5576 5576 5576 5577 5577 5577 5578 5578 5578 5579 5579 5579 5580 5580 5581 5582 5583 5585 5586 5585 5584 5584 5584 5584 5585 5585 5586 5587 5588 5588 5588 5589 5589 5590 5591 5592 5593 5594 5594 5596
5570 5569 5568 5567 5565 5565 5564 5563 5564 5560 5561 5565 5564 5563 5560 5559 5567 5570 5563 5561 5563 5562 5561 5561 5562 5563 5564 5564 5564 5564 5564 5564 5564 5564 5563 5563 5563 5564 5564 5564 5565 5565 5566 5566 5566 5566 5566 5566 5566 5566 5566 5566 5567 5567 5567 5567 5567 5568 5567 5568 5568 5568 5569 5570 5570 5570 5570 5570 5571 5571 5572 5573 5574 5576 5577 5578 5578 5577 5577 5576 5576 5577 5578 5579 5580 5580 5580 5580 5581 5581 5583 5584 5585 5586 5586 5587 5588
5565 5564 5563 5561 5561 5560 5559 5559 5558 5556 5558 5561 5559 5558 5556 5555 5563 5564 5556 5553 5557 5559 5557 5555 5556 5557 5558 5559 5559 5559 5559 5559 5559 5558 5558 5558 5557 5557 5557 5558 5558 5558 5558 5559 5559 5559 5559 5559 5559 5559 5559 5559 5560 5560 5560 5560 5560 5560 5559 5560 5560 5560 5561 5562 5562 5562 5562 5563 5563 5563 5564 5565 5566 5568 5569 5571 5571 5571 5569 5568 5568 5569 5571 5572 5572 5572 5572 5573 5573 5574 5576 5577 5578 5579 5579 5580 5581
5560 5559 5558 5557 5556 5555 5554 5554 5553 5552 5554 5555 5553 5552 5551 5553 5557 5557 5551 5548 5550 5553 5553 5551 5551 5551 5552 5553 5553 5554 5553 5553 5553 5553 5552 5552 5552 5551 5551 5551 5551 5551 5552 5551 5552 5552 5552 5552 5552 5553 5553 5553 5553 5553 5553 5553 5552 5552 5552 5552 5553 5553 5554 5554 5554 5555 5555 5555 5555 5556 5557 5557 5558 5560 5561 5563 5563 5562 5562 5562 5561 5562 5563 5564 5564 5565 5565 5565 5566 5567 5568 5569 5570 5571 5571 5572 5573
5556 5556 5555 5553 5552 5550 5549 5549 5548 5548 5549 5549 5548 5547 5547 5550 5551 5549 5548 5544 5544 5546 5547 5547 5547 5546 5546 5546 5547 5547 5548 5548 5547 5547 5547 5546 5546 5545 5545 5546 5545 5545 5545 5545 5545 5545 5545 5545 5546 5546 5546 5546 5546 5546 5546 5546 5545 5545 5545 5545 5546 5546 5547 5547 5547 5547 5547 5548 5548 5548 5549 5550 5551 5552 5553 5554 5554 5554 5554 5555 5555 5556 5556 5556 5557 5558 5558 5558 5558 5559 5560 5561 5562 5562 5562 5564 5565
5553 5552 5551 5550 5550 5547 5545 5545 5544 5543 5544 5543 5542 5542 5543 5546 5545 5543 5543 5541 5539 5540 5541 5542 5542 5542 5541 5541 5541 5541 5541 5542 5541 5541 5541 5540 5540 5540 5540 5540 5539 5539 5539 5539 5539 5539 5539 5539 5539 5539 5540 5540 5540 5539 5539 5539 5539 5539 5539 5539 5539 5539 5540 5540 5540 5540 5541 5541 5541 5542 5542 5542 5543 5543 5544 5545 5545 5546 5546 5547 5548 5549 5549 5549 5550 5550 5550 5551 5551 5552 5553 5554 5555 5555 5555 5557 5558
5548 5548 5547 5546 5546 5544 5542 5541 5540 5539 5538 5537 5537 5538 5539 5540 5538 5538 5538 5537 5536 5535 5535 5536 5536 5537 5537 5536 5536 5535 5535 5535 5535 5535 5535 5535 5535 5535 5534 5534 5534 5533 5533 5533 5533 5533 5533 5533 5533 5533 5533 5533 5533 5533 5533 5532 5532 5532 5532 5532 5532 5532 5532 5532 5533 5533 5534 5534 5534 5535 5535 5535 5536 5536 5536 5537 5537 5539 5539 5539 5540 5541 5542 5542 5543 5543 5543 5544 5544 5545 5546 5547 5548 5547 5548 5549 5550
5544 5543 5542 5541 5541 5540 5538 5537 5536 5535 5533 5532 5534 5534 5535 5535 5533 5533 5533 5532 5532 5531 5531 5531 5531 5531 5531 5531 5531 5530 5529 5529 5529 5529 5529 5529 5529 5529 5529 5529 5528 5528 5528 5528 5528 5527 5527 5527 5526 5526 5526 5526 5526 5526 5525 5525 5525 5525 5525 5525 5525 5526 5526 5526 5526 5526 5527 5527 5527 5528 5528 5528 5529 5529 5529 5529 5530 5531 5532 5532 5533 5534 5534 5535 5535 5535 5535 5536 5537 5538 5539 5539 5540 5539 5540 5542 5542
5539 5538 5538 5537 5536 5535 5535 5532 5531 5530 5528 5527 5529 5530 5530 5529 5528 5528 5529 5528 5528 5527 5526 5526 5525 5525 5525 5525 5525 5525 5524 5524 5523 5523 5523 5523 5523 5523 5523 5523 5523 5523 5522 5522 5522 5521 5521 5520 5520 5520 5519 5519 5519 5518 5518 5518 5518 5518 5518 5519 5519 5519 5519 5519 5520 5520 5520 5520 5520 5520 5521 5521 5521 5521 5522 5522 5523 5524 5524 5525 5525 5526 5526 5527 5527 5527 5527 5528 5528 5530 5531 5531 5532 5531 5532 5534 5534
5535 5534 5533 5533 5532 5531 5531 5529 5527 5526 5523 5522 5523 5524 5525 5525 5524 5524 5523 5523 5523 5522 5521 5521 5520 5520 5520 5520 5520 5520 5519 5519 5518 5518 5517 5517 5517 5517 5517 5517 5517 5516 5516 5516 5515 5515 5515 5514 5514 5514 5513 5513 5512 5512 5511 5511 5511 5511 5511 5511 5512 5512 5512 5512 5513 5513 5513 5513 5513 5513 5513 5513 5514 5514 5515 5515 5516 5517 5517 5517 5518 5518 5518 5519 5519 5519 5519 5520 5520 5522 5523 5523 5524 5523 5524 5526 5526
5531 5530 5529 5528 5528 5527 5526 5525 5524 5522 5520 5518 5518 5518 5519 5519 5519 5519 5518 5518 5518 5517 5516 5516 5515 5515 5515 5515 5515 5514 5514 5513 5513 5512 5512 5512 5511 5511 5511 5511 5510 5510 5510 5509 5509 5508 5508 5508 5507 5507 5507 5506 5506 5505 5505 5504 5504 5504 5504 5504 5504 5504 5505 5505 5505 5506 5506 5506 5506 5506 5506 5506 5506 5507 5507 5508 5509 5509 5509 5510 5510 5510 5510 5511 5511 5511 5511 5512 5512 5513 5514 5515 5515 5515 5516 5518 5518
5527 5525 5524 5524 5523 5523 5521 5520 5520 5519 5516 5514 5512 5511 5513 5514 5513 5513 5513 5512 5512 5512 5511 5511 5510 5510 5509 5509 5509 5508 5508 5507 5507 5506 5506 5506 5505 5505 5505 5504 5504 5504 5503 5503 5502 5502 5502 5501 5501 5500 5500 5500 5499 5499 5498 5498 5497 5497 5497 5497 5497 5497 5497 5497 5498 5498 5498 5498 5498 5498 5498 5498 5498 5499 5499 5500 5501 5501 5502 5502 5502 5502 5502 5502 5503 5503 5503 5503 5504 5505 5506 5506 5507 5506 5508 5509 5509
5522 5521 5520 5520 5519 5518 5517 5515 5515 5515 5512 5511 5508 5506 5508 5509 5509 5508 5507 5507 5507 5506 5506 5505 5505 5504 5504 5503 5503 5502 5502 5502 5501 5501 5500 5500 5499 5499 5498 5498 5498 5497 5497 5497 5496 5496 5495 5494 5494 5493 5493 5493 5493 5492 5492 5491 5491 5491 5490 5490 5490 5490 5489 5490 5490 5490 5490 5490 5490 5490 5490 5490 5490 5491 5491 5491 5492 5493 5493 5494 5494 5494 5495 5495 5495 5495 5495 5496 5496 5497 5498 5498 5498 5498 5499 5500 5501